Location: Piedmont
(45.8748°N, 74.1254°W)
Time: 22:31:53
(UTC+00:00)

N. Korean satellite - Pass Details

Date: 11 December 2021
Orbit: 447 x 491 km, 97.3° (Epoch: 21 January)

Event Time Altitude Azimuth Distance (km) Brightness Sun altitude
Rises 09:19:45 0° 29° (NNE) 2,459 10.5 -31.7°
Enters shadow 09:20:50 - 36° (NE) 2,066 10.2 -31.6°
Exits shadow 09:25:09 16° 105° (ESE) 1,260 9.4 -30.8°
Drops below altitude 10° 09:26:49 10° 134° (SE) 1,578 9.7 -30.5°
Sets 09:29:24 0° 156° (SSE) 2,449 10.5 -30.1°
